Flag for China Weather past 2 weeks in Tsingtao, Shandong, China

Now
79 °F

Passing clouds.


Feels Like: 82 °F
Forecast: 77 / 85 °F
Wind: 6 mph from Southeast

Location: Qingdao Airport

Current Time: Jul 31, 2015 at 11:55:54 PM

Latest Report: Jul 31, 2015 at 11:00 PM


Visibility: N/A

Pressure: 29.74 "Hg

Humidity: 84%

Dew point: 73 °F

Location of TsingtaoLocation

Historic Weather in Tsingtao — Graph

°F

Tsingtao temperature yesterday

Maximum temperature yesterday: 95 °F (at 12:00 PM)
Minimum temperature yesterday: 81 °F (at 7:00 PM)
Average temperature yesterday: 88 °F

Past Weeks' High & Low Weather Summary

 TemperatureHumidityPressure
High95 °F (Jul 30, 12:00 PM)94% (Jul 25, 6:00 AM)29.83 "Hg (Jul 25, 6:00 AM)
Low72 °F (Jul 18, 2:00 AM)41% (Jul 25, 1:00 PM)29.56 "Hg (Jul 24, 5:00 PM)
Average81 °F75%29.69 "Hg
* Reported Jul 16 10:00 PM — Jul 31 10:00 PM, Tsingtao, Weather by CustomWeather, © 2015

Note: Actual official high and low records may vary slightly from our data, if they occured in-between our weather recording intervals... More about our weather records

Advertising

Tsingtao weather history for previous 24 hours

 ConditionsComfort  
Time TempWeatherWind HumidityBarometerVisibility
10:00 PM
Fri, Jul 31
81 °FPassing clouds.3 mph79%29.74 "HgN/A
9:00 PM81 °FClear.6 mph79%29.74 "Hg10 mi
8:00 PM81 °FClear.8 mph79%29.71 "Hg10 mi
7:00 PM82 °FScattered clouds.6 mph79%29.71 "HgN/A
6:00 PM86 °FPassing clouds.8 mph70%29.68 "HgN/A
5:00 PM86 °FPassing clouds.6 mph70%29.68 "HgN/A
4:00 PM82 °FLight rain. Clear.6 mph79%29.68 "HgN/A
3:00 PM86 °FScattered clouds.6 mph70%29.68 "HgN/A
2:00 PM88 °FScattered clouds.6 mph59%29.68 "HgN/A
1:00 PM90 °FPassing clouds.3 mph59%29.71 "HgN/A
12:00 PM84 °FSunny.1 mph74%29.71 "Hg10 mi
11:00 AM79 °FSunny.1 mph84%29.74 "Hg10 mi
10:00 AM77 °FScattered clouds.1 mph89%29.74 "HgN/A
9:00 AM75 °FThunderstorms. Passing clouds.6 mph94%29.71 "HgN/A
8:00 AM73 °FStrong thunderstorms. Broken clouds.17 mph94%29.74 "Hg1 mi
7:00 AM84 °FPassing clouds.3 mph62%29.68 "HgN/A
6:00 AM79 °FScattered clouds.8 mph79%29.71 "HgN/A
5:00 AM79 °FPassing clouds.6 mph79%29.68 "HgN/A
4:00 AM81 °FPassing clouds.8 mph74%29.71 "HgN/A
3:00 AM81 °FPassing clouds.8 mph74%29.71 "HgN/A
2:00 AM82 °FFog.3 mph84%29.71 "Hg3 mi
1:00 AM82 °FClear.10 mph84%29.65 "Hg4 mi
12:00 AM84 °FClear.10 mph79%29.65 "Hg4 mi
11:00 PM
Thu, Jul 30
86 °FClear.10 mph66%29.68 "Hg10 mi
Weather by CustomWeather, © 2015

See weather overviewHow to use our weather pages